| time (UTC) | temp F | wind direction | speed knots | gust knots | rain 1hr in | rain 24hr in | rain mn in | humidity % | barometer mb |
| 20260505051539 | 64 | 210 | 0.9 | 6.1 | 0.00 | 0.00 | 0.00 | 100 | 1013.6 |
| 20260505041538 | 65 | 219 | 2.6 | 7.0 | 0.00 | 0.00 | 0.00 | 100 | 1013.6 |
| 20260505040040 | 66 | 229 | 3.5 | 7.0 | 0.00 | 0.00 | 0.00 | 100 | 1013.5 |
| 20260505034538 | 66 | 213 | 3.5 | 7.0 | 0.00 | 0.00 | 0.00 | 100 | 1013.5 |
| 20260505033041 | 66 | 229 | 3.5 | 7.0 | 0.00 | 0.00 | 0.00 | 100 | 1013.4 |
| 20260505031551 | 65 | 219 | 3.5 | 9.6 | 0.00 | 0.00 | 0.00 | 100 | 1013.4 |
| 20260505030038 | 65 | 238 | 2.6 | 6.1 | 0.00 | 0.00 | 0.00 | 100 | 1013.5 |
| 20260505024541 | 65 | 218 | 1.7 | 6.1 | 0.00 | 0.00 | 0.00 | 100 | 1013.3 |
| 20260505023049 | 65 | 207 | 1.7 | 6.1 | 0.00 | 0.00 | 0.00 | 100 | 1013.3 |
| 20260505021540 | 63 | 216 | 0.9 | 2.6 | 0.00 | 0.00 | 0.00 | 100 | 1013.0 |
| 20260505020039 | 60 | 0 | 0.0 | 0.9 | 0.00 | 0.00 | 0.00 | 100 | 1012.9 |
| 20260505014544 | 59 | 0 | 0.0 | 0.0 | 0.00 | 0.00 | 0.00 | 100 | 1012.9 |
| 20260505013049 | 60 | 0 | 0.0 | 0.0 | 0.00 | 0.00 | 0.00 | 100 | 1013.1 |
| 20260505011545 | 61 | 0 | 0.0 | 0.9 | 0.00 | 0.00 | 0.00 | 100 | 1013.0 |
| 20260505010040 | 62 | 250 | 0.0 | 0.9 | 0.00 | 0.00 | 0.00 | 100 | 1012.9 |
| 20260505004547 | 63 | 215 | 0.9 | 2.6 | 0.00 | 0.00 | 0.00 | 100 | 1012.5 |
| 20260505003044 | 63 | 216 | 0.9 | 1.7 | 0.00 | 0.00 | 0.00 | 100 | 1012.5 |
| 20260505001543 | 63 | 219 | 0.0 | 1.7 | 0.00 | 0.00 | 0.00 | 100 | 1012.4 |
| 20260504234542 | 65 | 217 | 0.0 | 4.3 | 0.00 | 0.00 | 0.00 | 100 | 1012.3 |
| 20260504233040 | 66 | 221 | 0.0 | 3.5 | 0.00 | 0.00 | 0.00 | 100 | 1012.3 |
| 20260504231539 | 67 | 222 | 0.9 | 4.3 | 0.00 | 0.00 | 0.00 | 100 | 1012.1 |
| 20260504230055 | 68 | 223 | 0.9 | 5.2 | 0.00 | 0.00 | 0.00 | 100 | 1012.1 |
| 20260504224538 | 68 | 226 | 1.7 | 5.2 | 0.00 | 0.00 | 0.00 | 100 | 1012.1 |
| 20260504223042 | 69 | 178 | 1.7 | 4.3 | 0.00 | 0.00 | 0.00 | 100 | 1012.1 |
| 20260504221550 | 70 | 232 | 1.7 | 7.0 | 0.00 | 0.00 | 0.00 | 100 | 1012.2 |
| 20260504220040 | 71 | 229 | 0.9 | 5.2 | 0.00 | 0.00 | 0.00 | 100 | 1012.2 |
| 20260504214539 | 72 | 169 | 1.7 | 7.8 | 0.00 | 0.00 | 0.00 | 100 | 1012.4 |
| 20260504213046 | 72 | 215 | 2.6 | 7.0 | 0.00 | 0.00 | 0.00 | 100 | 1012.5 |
| 20260504211546 | 72 | 227 | 1.7 | 7.8 | 0.00 | 0.00 | 0.00 | 100 | 1012.6 |
| 20260504210044 | 71 | 355 | 1.7 | 4.3 | 0.00 | 0.00 | 0.00 | 100 | 1012.4 |
| 20260504204541 | 71 | 234 | 1.7 | 7.8 | 0.00 | 0.00 | 0.00 | 100 | 1012.5 |
| 20260504203039 | 70 | 200 | 1.7 | 7.8 | 0.00 | 0.00 | 0.00 | 100 | 1012.6 |
| 20260504201543 | 69 | 207 | 2.6 | 6.1 | 0.00 | 0.00 | 0.00 | 100 | 1012.8 |
| 20260504200045 | 69 | 145 | 0.9 | 7.0 | 0.00 | 0.00 | 0.00 | 100 | 1013.0 |
| 20260504194540 | 69 | 178 | 2.6 | 7.0 | 0.00 | 0.00 | 0.00 | 100 | 1013.0 |
| 20260504193045 | 70 | 204 | 2.6 | 9.6 | 0.00 | 0.00 | 0.00 | 100 | 1013.1 |
| 20260504191543 | 70 | 136 | 2.6 | 8.7 | 0.00 | 0.00 | 0.00 | 100 | 1013.4 |
| 20260504190044 | 70 | 171 | 2.6 | 11.3 | 0.00 | 0.00 | 0.00 | 100 | 1013.5 |
| 20260504184543 | 71 | 226 | 2.6 | 7.8 | 0.00 | 0.00 | 0.00 | 100 | 1013.8 |
| 20260504183039 | 71 | 198 | 2.6 | 7.0 | 0.00 | 0.00 | 0.00 | 100 | 1014.0 |
| 20260504181538 | 71 | 180 | 0.9 | 9.6 | 0.00 | 0.00 | 0.00 | 100 | 1014.1 |
| 20260504180045 | 71 | 175 | 2.6 | 7.0 | 0.00 | 0.00 | 0.00 | 100 | 1014.3 |
| 20260504174542 | 70 | 211 | 2.6 | 7.0 | 0.00 | 0.00 | 0.00 | 100 | 1014.1 |
| 20260504173040 | 71 | 323 | 2.6 | 8.7 | 0.00 | 0.00 | 0.00 | 100 | 1014.3 |
| 20260504171539 | 74 | 239 | 2.6 | 7.8 | 0.00 | 0.00 | 0.00 | 100 | 1014.5 |
| 20260504081544 | 55 | 190 | 1.7 | 4.3 | 0.00 | 0.00 | 0.00 | 100 | 1017.0 |